Overview Statistics Trail Chart Weather Telemetry Raw packets
 

This is the latest recevied weather packets stored in our database for station/object DL2AKT-20. If no packets are shown the sender has not sent any weather packets the latest 10 day(s).

<< 18 19 20 21 22 23 24 >>
Time Temp. Humidity Pressure Rain* Wind** Luminosity Snow
1777763067 20° C 30% 1019.3 hPa - - - -
1777762167 20.56° C 30% 1019.3 hPa - - - -
1777761267 20.56° C 30% 1019.4 hPa - - - -
1777760367 21.11° C 30% 1019.5 hPa - - - -
1777759467 21.11° C 29% 1019.4 hPa - - - -
1777758566 21.11° C 29% 1019.5 hPa - - - -
1777757666 21.11° C 29% 1019.6 hPa - - - -
1777756766 21.67° C 28% 1019.8 hPa - - - -
1777755866 21.11° C 29% 1019.7 hPa - - - -
1777754966 22.22° C 28% 1019.8 hPa - - - -
1777754066 22.22° C 27% 1019.9 hPa - - - -
1777753166 22.78° C 27% 1020.1 hPa - - - -
1777752266 23.33° C 26% 1020.2 hPa - - - -
1777751366 23.89° C 26% 1020.2 hPa - - - -
1777750470 23.89° C 25% 1020.2 hPa - - - -
1777749565 24.44° C 24% 1020 hPa - - - -
1777748665 24.44° C 24% 1020.1 hPa - - - -
1777747767 25.56° C 23% 1020.1 hPa - - - -
1777746867 26.11° C 23% 1019.9 hPa - - - -
1777745967 26.67° C 23% 1020 hPa - - - -
1777745067 27.22° C 23% 1019.9 hPa - - - -
1777744167 27.22° C 23% 1020 hPa - - - -
1777743267 27.78° C 23% 1020 hPa - - - -
1777742367 28.33° C 22% 1020 hPa - - - -
1777741466 27.78° C 22% 1020.2 hPa - - - -

* Rain since midnight (hover to see other rain measurements)
** Current wind speed in m/s (hover to see current wind gust speed)